Vorticity
1 1 1 1 2 4 5 5 6 7 9 8 6 6 7 7 6 6 7 8 8 6 5 6 6 5 4 3 4 5 6 5 3 3 5 5 4 4 4 4 4 4 3 3 3 4 3 4 4 4 4 4 5 6 7 7 7 6 5 6 8 9 8 6 3 -1 -3 -4 -3 0 3 6 11 10 8 13 16 15 16 12 8 8 9 13 5 1 19
1 1 2 3 4 5 5 5 7 9 9 7 6 7 8 8 8 7 9 10 9 6 7 7 7 6 5 4 3 2 4 6 6 4 4 5 5 4 4 5 4 4 5 4 3 4 4 3 4 5 5 5 5 6 7 5 6 6 5 6 8 9 10 9 8 7 4 4 2 1 4 9 13 10 5 9 13 10 9 12 13 12 15 19 5 -4 16
2 2 3 4 4 5 5 6 9 10 8 5 7 8 7 7 8 9 10 9 7 8 8 6 6 6 5 6 6 5 4 4 6 6 4 4 6 4 4 4 4 4 5 5 3 3 4 3 5 6 6 5 4 6 6 4 5 6 5 6 7 7 8 7 8 11 9 9 8 4 3 7 11 12 7 6 11 12 7 6 10 9 14 26 15 -3 9
2 3 4 4 4 5 7 9 9 7 6 6 8 8 7 8 8 8 8 6 6 9 8 5 6 6 5 6 6 7 8 5 4 6 5 4 5 5 4 3 4 4 4 4 3 2 3 4 5 6 6 5 4 5 5 3 5 6 5 7 8 7 7 6 4 4 3 3 4 3 3 4 5 10 9 7 13 17 7 2 7 7 7 23 26 8 7
3 4 4 4 5 7 10 10 8 6 6 7 8 7 7 8 7 6 6 6 7 8 7 5 5 5 6 7 7 7 9 7 4 5 6 5 5 5 5 4 3 4 3 4 3 2 3 4 5 5 4 4 5 5 4 3 5 6 6 8 9 8 7 6 3 1 -0 2 4 3 4 3 3 8 8 7 14 17 8 2 10 13 2 5 17 13 9
4 4 4 5 8 10 11 9 6 6 7 7 7 7 6 6 6 5 4 6 7 7 6 6 6 7 6 7 9 8 7 8 7 5 5 6 5 5 6 5 4 4 4 4 4 3 3 4 4 4 3 3 4 4 4 4 5 6 7 7 8 9 8 6 4 1 -0 2 3 2 3 4 4 6 6 9 13 11 7 8 15 19 10 0 6 14 12
4 4 4 6 9 11 10 6 5 6 6 6 6 6 6 6 6 6 5 6 6 6 6 5 6 7 7 8 9 9 8 7 7 6 5 6 6 6 7 6 5 4 4 3 3 3 3 3 3 3 4 4 3 3 4 4 5 5 5 6 7 7 8 7 5 3 0 1 2 2 4 5 3 3 6 10 12 8 8 13 16 18 17 10 8 13 14
4 5 6 8 10 10 7 4 4 6 6 6 6 5 5 4 4 5 5 5 6 6 7 7 6 7 7 8 9 9 9 8 7 7 6 6 6 6 7 7 6 5 4 3 3 2 2 3 2 2 4 4 2 4 4 4 5 4 3 5 6 6 7 7 7 5 2 1 2 2 4 4 2 3 7 6 8 12 13 13 12 10 12 13 11 11 14
5 6 7 8 8 9 7 4 4 6 6 7 6 5 5 5 4 4 5 5 5 5 6 6 6 7 7 8 8 8 8 9 8 8 7 6 6 6 7 8 6 5 4 4 3 2 2 3 2 2 4 4 2 4 5 5 5 4 3 4 5 5 6 6 7 7 4 2 2 3 2 2 1 4 6 4 7 19 20 12 9 7 4 8 9 9 13
6 6 7 7 8 9 8 5 4 5 5 5 5 5 5 5 4 4 5 6 5 5 6 5 5 7 8 8 7 6 8 9 9 9 8 7 7 6 7 8 6 5 5 4 3 2 2 2 1 2 3 3 3 4 5 5 4 3 4 4 4 5 5 6 7 6 5 4 3 2 -0 2 5 5 6 6 10 20 21 9 8 11 7 7 9 7 11
7 7 6 6 8 10 9 6 4 3 3 4 5 6 5 5 5 3 4 5 5 5 6 5 4 6 7 8 7 6 7 9 9 10 9 7 7 6 7 8 7 5 4 4 3 2 2 3 1 2 3 3 3 5 5 4 3 3 4 4 5 5 5 6 6 5 6 4 2 2 2 4 7 5 5 8 10 17 20 8 3 12 12 8 10 9 9
8 7 6 7 9 10 10 7 4 3 3 3 4 6 6 5 5 4 4 4 4 5 6 6 5 5 6 7 7 6 7 9 10 10 9 8 7 6 7 8 7 6 5 5 4 3 3 3 2 2 4 3 3 5 5 3 3 3 4 5 5 5 5 6 6 5 6 4 1 3 4 3 3 4 7 9 4 7 19 17 7 10 11 7 8 9 8
11 10 9 10 10 11 11 9 6 4 4 3 3 4 5 5 5 5 5 5 5 4 5 6 5 5 5 7 8 7 7 9 10 10 9 8 7 7 7 8 7 6 6 5 4 4 3 3 2 2 3 3 3 5 3 3 4 4 4 5 5 5 4 5 6 6 5 4 3 3 2 -0 2 5 6 8 6 4 10 16 13 9 7 5 7 9 7
11 11 10 10 10 11 12 10 8 6 5 4 4 5 5 5 6 5 4 5 5 4 5 5 4 5 5 6 8 8 7 9 11 11 10 8 8 7 7 7 7 6 6 5 5 4 3 3 3 3 3 2 3 4 3 3 6 5 4 5 5 5 5 5 6 5 4 5 3 1 2 1 3 6 5 8 15 12 7 10 13 10 7 4 5 9 9
9 9 10 10 9 10 11 9 9 8 7 6 6 7 7 6 6 7 5 5 5 4 5 4 3 5 5 6 9 8 7 10 11 11 10 9 8 7 6 7 7 7 7 6 5 4 3 4 3 3 3 2 2 5 5 5 6 5 5 6 5 5 5 4 6 5 4 4 0 -1 2 3 2 6 6 7 10 11 12 17 14 7 8 9 6 9 10
7 8 8 9 9 9 9 9 9 8 8 8 7 8 8 6 5 6 6 6 5 4 5 4 3 4 4 5 8 8 8 11 12 11 11 9 8 7 6 7 7 7 8 7 6 4 3 4 4 3 3 2 3 5 5 5 5 5 5 5 5 5 5 4 5 5 5 5 2 -1 0 2 2 4 7 8 5 2 7 15 15 9 10 11 8 8 10
7 7 6 7 7 8 8 8 8 9 9 9 8 8 9 8 6 6 6 6 5 4 4 4 3 4 4 5 7 8 9 11 12 11 10 9 8 6 6 7 7 8 9 8 6 5 3 3 5 4 2 2 4 5 4 5 6 6 6 6 5 5 5 4 5 6 5 5 4 1 0 2 2 3 6 7 7 7 5 4 9 15 15 10 8 9 10
10 9 7 7 6 6 6 7 7 8 8 9 9 9 10 10 9 7 6 6 5 4 4 4 3 3 3 4 5 7 9 11 12 12 10 9 8 6 6 7 7 8 9 8 6 4 4 4 4 4 3 2 3 5 5 5 6 6 7 7 6 5 5 5 5 6 6 5 3 2 2 2 2 3 5 3 4 11 13 5 3 12 14 9 8 8 9
12 10 9 8 7 6 5 6 6 7 8 9 10 10 10 10 10 8 6 5 6 5 4 4 4 2 2 3 4 6 9 11 12 11 9 9 8 6 6 7 8 8 8 8 6 4 4 4 4 4 3 2 3 5 5 6 6 7 7 7 6 6 5 5 5 5 6 6 4 1 1 2 2 3 5 5 3 6 13 13 8 7 9 11 11 7 7
17 16 13 11 9 8 6 6 6 7 7 7 9 10 11 11 11 10 8 7 7 6 5 5 4 2 2 2 3 5 8 11 11 10 9 9 8 6 6 7 7 8 8 7 6 4 4 4 4 4 2 2 4 5 5 6 7 7 7 7 5 6 5 4 5 5 5 6 4 -0 -1 0 1 2 3 5 6 5 7 12 11 5 6 12 13 8 7
18 21 20 17 14 11 8 6 5 5 5 5 6 7 9 10 11 10 9 8 7 6 6 6 4 2 2 2 2 4 7 10 11 9 8 9 8 6 7 7 8 8 8 7 5 4 5 4 4 4 2 3 5 5 5 7 7 7 8 7 5 6 5 4 5 5 5 6 5 1 1 0 0 2 3 4 7 8 6 7 8 6 6 10 13 10 8
10 16 21 23 20 16 13 10 7 5 5 5 4 5 6 7 9 11 11 10 8 7 7 6 4 3 2 1 2 3 6 9 11 9 8 9 8 7 8 8 8 8 8 7 6 5 5 4 4 4 3 3 5 5 5 7 7 7 8 7 6 6 5 5 6 6 5 7 5 3 2 2 1 2 4 5 6 8 7 6 8 9 7 7 10 10 8
2 7 14 21 23 20 17 15 12 8 6 6 5 5 5 5 6 10 12 11 9 8 7 6 5 5 3 2 1 2 4 8 10 8 8 8 7 7 9 9 8 9 8 6 6 6 5 4 4 4 3 4 5 5 6 7 7 8 8 7 7 6 6 6 6 6 6 6 6 4 2 2 2 1 2 6 6 4 5 6 7 10 11 9 7 8 9
0 1 5 13 21 22 18 16 17 15 11 9 8 6 5 5 5 7 10 10 8 7 7 7 7 7 4 2 1 1 3 7 9 8 7 8 7 6 8 9 8 8 8 6 6 7 5 5 5 3 3 5 5 5 7 7 7 8 8 7 6 5 6 7 6 6 6 5 6 6 2 1 2 1 1 4 5 4 5 5 5 11 15 10 5 7 11
1 -0 -1 4 14 23 21 15 14 16 16 12 10 8 6 6 5 5 7 8 8 7 8 9 9 7 6 3 2 2 2 5 9 8 6 7 7 6 8 9 7 8 9 6 6 7 6 5 5 4 4 6 6 6 7 6 6 8 7 7 7 6 6 7 7 5 6 7 7 7 4 2 3 2 1 3 4 5 5 4 5 11 13 9 5 6 9
2 2 1 -0 4 17 26 19 12 15 19 17 12 10 7 6 6 5 5 6 9 9 8 8 8 8 8 5 3 2 1 3 7 8 6 7 7 6 8 9 7 7 8 7 7 7 6 5 5 4 5 6 6 6 7 6 6 8 7 6 7 6 5 7 7 6 5 6 6 6 5 4 3 2 2 2 3 5 5 4 5 7 7 9 10 9 7
2 1 3 2 -0 7 22 24 15 13 22 24 17 12 10 8 6 6 4 5 8 8 6 7 9 10 9 6 4 3 1 2 5 7 6 7 6 5 7 9 7 7 8 7 7 7 6 5 6 5 5 6 6 6 6 5 5 6 7 7 6 6 6 6 7 7 6 4 5 6 5 4 3 2 2 2 2 4 5 5 5 2 1 8 15 13 8
3 2 3 4 1 2 15 25 18 11 21 30 24 15 13 11 8 7 5 4 6 7 7 8 10 10 10 8 7 5 2 2 4 6 6 6 5 5 7 8 7 7 7 6 7 6 5 5 5 5 6 6 6 5 5 5 5 5 6 7 6 6 6 6 6 7 7 5 5 5 6 5 3 2 2 2 2 3 5 5 3 -0 -0 7 13 13 10
3 3 3 4 2 1 11 24 19 8 16 31 30 19 13 11 9 9 6 4 5 6 7 8 9 10 11 10 8 7 3 2 4 5 5 6 5 4 6 7 7 7 6 6 7 6 5 6 5 6 7 6 5 6 5 4 4 4 5 7 7 6 6 6 7 8 7 6 5 4 5 6 5 3 3 2 1 2 4 4 2 0 2 7 10 10 10
3 3 2 1 1 3 13 25 21 8 11 27 32 24 16 11 10 10 7 5 5 5 6 9 9 10 12 11 9 8 5 3 4 5 5 5 5 5 6 7 7 7 6 6 7 6 6 6 6 6 7 5 4 5 5 3 3 3 4 5 6 6 6 6 7 8 8 7 6 4 5 6 6 4 3 2 1 2 3 3 3 3 4 5 6 8 9
3 2 -0 -0 4 10 20 27 22 8 7 21 29 26 19 14 12 11 8 6 5 5 6 8 9 10 12 12 10 9 6 5 4 4 5 6 5 5 6 6 7 7 6 6 6 6 6 6 7 6 6 6 5 5 4 4 3 3 3 5 5 6 7 6 6 7 7 7 7 5 4 5 5 5 4 3 2 2 2 3 4 5 4 3 3 8 9
2 2 1 4 12 19 25 30 23 8 5 16 25 24 21 17 13 12 10 6 5 5 6 7 9 10 12 13 12 10 8 6 5 5 6 6 5 5 6 7 6 7 6 5 6 7 6 6 8 7 5 5 6 5 4 4 5 4 3 4 5 6 7 6 6 7 7 7 7 6 5 5 5 6 5 4 3 2 2 3 4 4 4 3 3 7 8
1 0 3 11 20 24 26 29 23 8 4 14 21 21 21 18 14 13 11 7 5 5 5 6 8 10 12 13 11 9 8 7 6 6 6 6 5 5 6 6 6 6 6 6 7 7 7 7 8 7 5 5 6 6 5 5 5 5 5 4 5 6 7 7 7 6 6 7 7 7 7 6 5 5 6 5 4 2 2 2 3 3 3 4 4 5 7
0 2 8 19 26 25 22 24 20 9 5 12 17 17 17 16 13 12 10 7 5 5 6 6 8 10 12 12 11 10 10 8 7 8 7 6 6 6 6 7 7 6 5 6 7 6 7 8 8 6 5 5 5 6 6 5 6 7 6 5 4 6 7 7 7 7 6 7 6 6 7 6 5 5 6 5 5 3 2 1 2 3 2 3 3 4 6
3 9 16 24 28 23 19 20 19 11 7 11 16 16 15 13 11 11 9 7 5 6 7 7 8 9 11 12 11 11 10 8 8 8 8 6 6 7 6 6 8 7 5 7 8 7 7 8 7 5 5 6 5 5 6 6 6 8 7 5 5 6 7 7 7 6 6 6 6 6 7 7 6 5 5 6 6 5 3 2 2 2 3 3 3 4 5
9 17 22 25 26 22 18 19 19 14 9 10 14 16 14 13 11 10 8 7 6 6 7 8 8 9 10 11 11 10 10 10 9 9 8 7 7 8 7 7 7 7 7 7 7 8 8 8 7 6 6 6 6 6 6 7 7 8 7 6 5 6 7 7 7 6 6 6 6 6 7 8 7 6 5 6 6 5 4 3 2 2 3 3 3 3 4
14 21 23 24 23 20 17 18 19 16 12 11 12 14 14 14 13 11 10 9 8 8 8 8 9 10 10 11 11 11 11 10 10 9 9 9 8 7 7 7 7 7 7 7 7 8 8 7 7 7 6 6 7 7 7 8 8 8 7 6 5 6 8 7 6 6 6 6 6 6 6 7 8 7 6 6 6 5 5 4 2 2 2 2 2 3 4
18 21 22 21 20 18 16 16 18 16 13 12 12 12 12 13 12 12 13 12 10 10 10 9 9 11 11 11 11 11 10 10 10 9 9 8 8 7 8 8 7 6 7 7 7 8 8 7 7 7 7 7 8 9 8 8 7 7 7 6 6 6 7 6 5 5 6 5 5 5 6 6 8 8 7 6 6 5 5 5 3 2 3 2 2 2 3
18 20 19 18 18 18 17 15 14 13 13 13 12 10 11 12 12 12 14 13 12 12 12 11 10 11 12 12 12 12 11 11 11 10 9 8 8 7 7 7 6 6 7 8 8 8 8 8 7 7 8 9 9 9 9 8 7 7 7 6 6 6 7 6 5 4 4 4 4 5 5 6 7 8 8 8 7 6 5 5 5 3 3 3 2 2 3
17 19 18 16 16 18 18 16 14 12 12 13 12 11 12 13 12 12 13 14 14 14 14 13 13 12 12 12 12 13 13 11 9 9 9 9 8 7 7 7 7 7 9 9 8 8 8 9 8 9 9 10 9 9 8 7 6 7 7 6 5 5 6 6 5 5 4 4 5 5 6 6 7 8 9 9 9 7 6 5 5 4 4 3 2 2 3
16 17 16 15 16 18 18 18 17 15 13 13 13 12 12 12 13 13 13 13 14 14 14 13 13 13 13 12 11 11 11 11 10 9 8 8 8 8 7 8 9 9 10 10 8 8 9 10 9 9 9 9 9 8 8 8 6 6 7 7 5 5 6 6 6 6 5 4 4 5 6 7 7 7 8 9 10 9 7 5 5 5 4 4 3 3 2
15 15 14 14 16 18 18 18 17 16 15 15 14 14 14 14 13 13 14 13 13 13 13 12 12 11 11 11 10 10 11 11 11 10 9 8 9 8 8 9 11 11 11 10 9 9 10 9 9 9 9 8 8 8 8 8 7 5 6 7 6 5 5 5 6 7 6 5 4 4 5 6 7 7 8 9 10 11 9 7 6 5 4 4 5 4 3
14 15 14 13 14 15 16 17 17 16 16 17 15 15 15 15 14 14 14 14 13 12 12 12 12 11 11 11 11 11 11 11 10 10 10 9 9 8 9 10 11 10 10 10 10 11 10 9 9 10 9 9 8 8 8 8 7 5 5 6 6 6 5 4 5 6 6 6 5 4 3 5 5 6 7 8 9 11 11 9 6 5 5 5 5 5 4
11 14 15 14 12 12 13 15 15 15 17 17 15 15 15 15 15 15 14 13 13 13 12 12 12 12 12 12 11 11 11 11 11 11 10 10 11 11 11 12 10 9 10 11 10 9 9 9 9 11 11 10 8 7 8 8 7 5 5 5 6 6 6 5 5 5 5 6 6 5 4 5 5 5 6 7 8 10 12 11 8 6 5 5 6 5 4
6 10 13 13 11 10 11 13 13 14 15 15 15 15 15 14 14 15 14 14 14 14 13 13 13 12 12 12 12 12 12 12 13 13 12 11 12 13 12 11 10 9 10 11 10 9 10 10 11 11 11 9 7 7 7 7 6 5 4 4 5 5 6 6 6 6 5 4 5 4 4 5 5 5 6 7 8 9 11 12 10 6 4 5 6 6 5
4 6 8 10 10 9 9 10 10 11 12 12 12 13 13 13 13 14 13 13 14 14 13 14 14 13 14 14 14 13 13 13 13 13 12 11 11 11 10 10 10 9 9 10 10 9 9 10 10 10 9 8 6 6 5 6 6 5 4 4 4 5 5 6 6 6 6 4 3 3 4 5 6 6 6 7 8 9 11 13 12 8 4 4 5 6 5
5 4 4 5 7 8 8 8 8 9 8 8 8 9 10 10 11 11 11 12 12 12 12 13 12 12 13 12 12 12 12 12 12 12 11 10 10 9 9 10 10 8 8 9 10 8 8 8 9 9 8 7 6 5 4 4 6 5 4 4 4 4 5 6 6 6 6 4 3 2 3 4 5 6 7 7 8 9 10 12 12 9 6 5 4 5 6
7 5 3 2 3 5 6 6 7 6 6 6 6 6 7 7 7 8 9 9 9 10 10 11 11 11 11 10 10 11 11 11 11 11 10 9 8 8 9 9 9 7 7 8 7 6 6 6 6 6 6 7 6 5 3 4 5 5 4 4 4 4 4 5 6 5 5 4 3 2 3 4 5 7 7 8 9 10 11 12 12 10 7 5 4 4 6
7 6 5 3 4 4 4 4 4 4 4 4 4 4 4 4 4 5 5 5 6 6 7 7 7 8 8 8 8 8 8 8 9 9 9 8 8 7 7 7 7 6 5 5 5 4 4 5 5 4 5 6 5 4 3 3 4 4 4 4 5 5 4 5 6 5 5 4 3 2 2 4 5 7 8 8 9 10 11 12 12 11 9 7 4 3 5
7 7 6 5 5 5 4 3 3 4 4 3 3 3 3 3 3 3 4 3 4 4 4 4 4 5 5 5 5 4 5 5 4 4 5 6 5 5 4 4 3 3 2 2 2 3 3 3 4 4 4 5 5 4 4 4 3 3 3 4 4 5 5 5 6 5 5 4 3 3 3 4 6 7 8 8 8 10 11 11 12 12 10 8 6 4 4
6 7 7 6 6 6 5 5 5 5 5 4 3 4 4 4 3 3 3 3 4 3 3 3 3 3 3 4 4 3 4 4 3 2 3 3 2 3 3 2 1 1 1 1 1 2 2 3 4 4 4 4 4 4 4 5 4 3 3 3 3 4 5 5 5 5 4 4 4 3 3 4 6 7 8 8 8 9 10 10 11 12 12 9 7 5 4
4 6 7 7 7 7 6 5 6 6 6 5 5 6 6 5 5 5 4 4 4 4 4 4 4 4 4 5 5 5 5 6 5 4 4 4 4 5 5 3 1 2 3 3 2 3 3 4 4 4 4 5 5 5 6 6 5 3 3 2 2 3 4 5 6 5 4 4 4 4 4 5 6 7 8 8 9 9 9 10 11 12 13 11 8 6 4
Height
5816 5818 5819 5820 5822 5823 5824 5824 5825 5826 5826 5827 5828 5828 5829 5829 5829 5829 5829 5829 5829 5829 5829 5829 5828 5828 5827 5827 5826 5826 5825 5824 5823 5821 5820 5818 5817 5815 5814 5812 5810 5808 5806 5804 5801 5798 5795 5792 5789 5785 5782 5778 5773 5769 5765 5761 5756 5752 5747 5742 5738 5732 5726 5720 5717 5713 5707 5700 5693 5686 5679 5670 5662 5653 5641 5632 5622 5612 5602 5591 5581 5574 5568 5559 5547 5537 5531
5818 5820 5821 5822 5823 5824 5825 5826 5826 5827 5828 5828 5829 5829 5830 5830 5830 5830 5830 5830 5830 5829 5829 5829 5829 5828 5827 5827 5826 5826 5825 5824 5823 5821 5820 5818 5817 5815 5813 5812 5810 5808 5805 5803 5800 5797 5794 5791 5788 5784 5781 5777 5772 5768 5764 5759 5755 5750 5745 5740 5735 5730 5723 5716 5711 5707 5702 5697 5690 5683 5675 5664 5654 5646 5637 5629 5622 5614 5606 5598 5587 5574 5565 5556 5542 5531 5526
5820 5821 5823 5824 5825 5825 5826 5827 5828 5828 5829 5830 5830 5831 5831 5831 5831 5830 5830 5830 5830 5830 5830 5829 5829 5828 5828 5827 5827 5826 5825 5824 5822 5821 5819 5818 5816 5814 5813 5811 5809 5807 5805 5802 5799 5797 5794 5790 5787 5783 5780 5776 5771 5767 5763 5758 5753 5748 5744 5739 5733 5728 5721 5712 5704 5696 5688 5682 5676 5668 5663 5657 5649 5642 5634 5626 5619 5612 5603 5593 5583 5572 5563 5556 5542 5526 5519
5822 5823 5824 5825 5826 5827 5827 5828 5829 5829 5830 5831 5831 5831 5832 5831 5831 5831 5831 5831 5831 5831 5830 5829 5829 5829 5828 5827 5827 5826 5825 5823 5822 5821 5819 5817 5816 5814 5812 5810 5808 5806 5804 5801 5798 5796 5793 5790 5786 5782 5778 5775 5771 5766 5762 5757 5752 5747 5742 5737 5732 5727 5721 5712 5704 5696 5688 5680 5673 5666 5659 5653 5648 5642 5635 5625 5614 5605 5596 5586 5579 5571 5562 5556 5546 5526 5512
5824 5825 5826 5827 5827 5828 5829 5829 5830 5831 5831 5832 5832 5832 5832 5832 5832 5832 5832 5832 5832 5831 5831 5830 5829 5829 5828 5828 5827 5826 5824 5823 5822 5820 5818 5817 5815 5813 5811 5810 5808 5805 5803 5801 5798 5795 5792 5789 5785 5782 5777 5773 5769 5765 5760 5756 5751 5746 5741 5736 5730 5725 5720 5714 5705 5697 5691 5683 5676 5669 5661 5653 5646 5640 5632 5623 5612 5602 5593 5586 5579 5570 5557 5546 5539 5527 5510
5825 5826 5827 5828 5829 5829 5830 5831 5831 5832 5832 5833 5833 5833 5833 5833 5833 5832 5832 5832 5832 5832 5831 5830 5830 5829 5828 5828 5827 5825 5824 5823 5821 5820 5818 5816 5814 5812 5811 5809 5807 5805 5802 5800 5798 5795 5792 5788 5784 5781 5777 5772 5768 5764 5759 5755 5750 5745 5740 5734 5729 5723 5718 5713 5707 5698 5691 5684 5676 5669 5662 5654 5645 5637 5629 5622 5613 5603 5595 5587 5576 5566 5552 5537 5529 5520 5507
5827 5828 5829 5829 5830 5830 5831 5832 5832 5833 5833 5833 5833 5834 5834 5834 5833 5833 5833 5833 5832 5832 5831 5830 5830 5829 5828 5827 5826 5825 5824 5822 5820 5819 5817 5815 5814 5812 5810 5808 5806 5804 5801 5799 5797 5794 5791 5787 5783 5780 5776 5772 5767 5762 5758 5754 5749 5744 5738 5733 5727 5721 5716 5711 5706 5699 5692 5685 5677 5670 5662 5654 5645 5637 5628 5620 5613 5604 5594 5584 5573 5563 5553 5540 5526 5515 5506
5829 5829 5830 5831 5831 5832 5832 5833 5833 5834 5834 5834 5834 5834 5834 5834 5834 5834 5833 5833 5832 5832 5831 5831 5830 5829 5828 5827 5826 5824 5823 5821 5820 5818 5816 5815 5813 5811 5809 5807 5805 5803 5800 5798 5795 5792 5789 5786 5782 5778 5775 5770 5766 5762 5757 5752 5748 5742 5737 5731 5725 5719 5714 5708 5704 5699 5693 5685 5677 5669 5661 5653 5644 5636 5627 5620 5615 5607 5593 5581 5570 5560 5550 5538 5525 5515 5505
5830 5830 5831 5832 5832 5833 5833 5834 5834 5834 5834 5835 5835 5835 5835 5835 5834 5834 5834 5833 5832 5832 5831 5831 5830 5829 5828 5827 5825 5824 5822 5821 5819 5817 5816 5814 5812 5810 5808 5806 5804 5801 5799 5796 5793 5791 5788 5784 5781 5777 5773 5769 5765 5761 5756 5751 5747 5741 5735 5729 5723 5717 5712 5706 5702 5697 5691 5684 5677 5669 5661 5653 5644 5637 5629 5619 5611 5602 5589 5575 5563 5551 5541 5533 5524 5511 5496
5831 5831 5832 5832 5833 5833 5834 5834 5835 5835 5835 5835 5835 5835 5835 5835 5835 5834 5834 5833 5832 5832 5831 5831 5830 5829 5827 5826 5825 5823 5821 5820 5818 5816 5815 5813 5811 5809 5807 5805 5803 5800 5797 5795 5792 5789 5786 5783 5779 5776 5772 5768 5764 5759 5755 5750 5745 5740 5734 5728 5722 5716 5710 5705 5700 5694 5689 5682 5675 5667 5660 5654 5645 5636 5627 5616 5604 5592 5582 5571 5560 5550 5541 5531 5519 5506 5494
5832 5832 5833 5833 5834 5834 5834 5835 5835 5835 5835 5836 5836 5836 5836 5835 5835 5834 5834 5833 5832 5832 5831 5831 5829 5828 5827 5825 5824 5822 5820 5819 5817 5815 5814 5812 5810 5808 5806 5804 5801 5799 5796 5793 5790 5788 5785 5781 5778 5774 5770 5767 5763 5758 5754 5749 5744 5738 5732 5726 5720 5714 5708 5702 5697 5691 5686 5680 5674 5668 5659 5650 5639 5628 5619 5609 5597 5586 5577 5569 5563 5556 5547 5535 5523 5511 5499
5832 5833 5833 5834 5834 5834 5835 5835 5835 5836 5836 5836 5836 5836 5835 5835 5835 5834 5834 5833 5832 5832 5831 5830 5829 5828 5826 5825 5823 5821 5820 5818 5816 5815 5813 5811 5809 5807 5805 5803 5800 5798 5795 5792 5789 5786 5783 5780 5777 5773 5769 5765 5761 5757 5752 5748 5742 5736 5730 5725 5719 5713 5706 5701 5694 5688 5682 5675 5669 5662 5651 5640 5631 5623 5613 5604 5598 5594 5589 5580 5568 5556 5545 5534 5522 5509 5496
5833 5833 5834 5834 5834 5835 5835 5835 5835 5836 5836 5836 5836 5836 5835 5835 5834 5834 5833 5833 5832 5831 5831 5830 5829 5827 5826 5824 5822 5820 5819 5817 5815 5813 5812 5810 5808 5806 5804 5801 5799 5796 5793 5791 5788 5785 5782 5779 5775 5771 5768 5764 5760 5756 5751 5746 5740 5735 5729 5723 5717 5711 5705 5699 5693 5686 5679 5671 5662 5653 5646 5639 5633 5623 5613 5605 5599 5591 5583 5572 5559 5546 5534 5524 5513 5503 5493
5834 5834 5834 5834 5835 5835 5835 5835 5835 5836 5836 5836 5836 5835 5835 5834 5834 5833 5833 5832 5832 5831 5830 5829 5828 5826 5825 5823 5821 5820 5818 5816 5814 5812 5811 5809 5807 5805 5803 5800 5797 5795 5792 5789 5787 5784 5780 5777 5774 5770 5767 5763 5759 5754 5749 5744 5738 5733 5727 5721 5715 5710 5703 5697 5690 5684 5677 5670 5662 5657 5651 5643 5634 5625 5615 5604 5590 5574 5562 5555 5547 5538 5528 5518 5510 5502 5492
5835 5835 5835 5835 5835 5835 5835 5835 5835 5835 5835 5835 5835 5835 5834 5834 5833 5833 5832 5832 5831 5830 5829 5828 5827 5826 5824 5822 5820 5819 5817 5815 5813 5811 5810 5808 5806 5804 5801 5799 5796 5794 5791 5788 5785 5782 5779 5775 5772 5768 5765 5761 5757 5752 5747 5741 5736 5731 5725 5720 5713 5707 5701 5695 5688 5680 5673 5667 5661 5655 5648 5638 5629 5622 5614 5603 5592 5581 5569 5557 5548 5540 5531 5522 5512 5501 5489
5836 5836 5836 5836 5835 5835 5835 5835 5835 5835 5835 5835 5835 5834 5834 5833 5833 5832 5832 5831 5830 5829 5829 5828 5826 5825 5823 5821 5820 5818 5816 5814 5812 5810 5808 5806 5804 5802 5800 5797 5795 5792 5790 5787 5784 5781 5777 5774 5770 5766 5763 5759 5754 5750 5745 5740 5735 5729 5724 5718 5712 5706 5700 5694 5687 5679 5672 5665 5656 5648 5640 5634 5626 5616 5606 5598 5593 5586 5577 5567 5559 5549 5537 5523 5510 5497 5484
5836 5836 5836 5836 5836 5836 5836 5835 5835 5835 5835 5834 5834 5834 5833 5833 5832 5831 5831 5830 5829 5828 5828 5827 5825 5824 5822 5821 5819 5817 5815 5813 5811 5809 5807 5805 5803 5801 5798 5796 5794 5791 5788 5785 5783 5779 5776 5772 5769 5765 5761 5757 5753 5748 5743 5738 5733 5728 5722 5717 5711 5705 5699 5693 5686 5678 5671 5663 5656 5648 5639 5631 5623 5615 5608 5599 5588 5578 5570 5564 5556 5545 5531 5518 5506 5493 5481
5837 5836 5836 5836 5836 5836 5836 5835 5835 5835 5834 5834 5833 5833 5832 5832 5831 5830 5830 5829 5828 5827 5827 5826 5824 5823 5821 5819 5818 5816 5814 5812 5810 5808 5806 5803 5801 5799 5797 5795 5792 5790 5787 5784 5781 5778 5774 5771 5767 5763 5760 5756 5751 5746 5741 5736 5731 5726 5721 5715 5710 5704 5698 5691 5685 5678 5670 5662 5655 5648 5639 5630 5623 5614 5605 5596 5588 5580 5570 5556 5543 5533 5524 5515 5504 5493 5481
5837 5837 5836 5836 5836 5836 5835 5835 5835 5834 5834 5833 5832 5832 5831 5831 5830 5829 5828 5828 5827 5826 5825 5824 5823 5822 5820 5818 5817 5815 5813 5810 5808 5806 5804 5802 5800 5798 5796 5793 5791 5788 5785 5782 5779 5776 5773 5769 5766 5762 5758 5754 5749 5744 5739 5734 5729 5724 5718 5713 5707 5701 5695 5689 5683 5676 5669 5661 5654 5648 5643 5634 5625 5614 5604 5594 5586 5578 5568 5555 5542 5532 5523 5515 5505 5494 5483
5837 5837 5836 5836 5836 5835 5835 5834 5834 5833 5833 5832 5832 5831 5830 5829 5829 5828 5827 5826 5826 5825 5824 5823 5822 5820 5819 5817 5815 5813 5811 5809 5807 5805 5803 5800 5799 5796 5794 5792 5789 5786 5783 5781 5778 5775 5771 5768 5764 5760 5756 5752 5747 5743 5738 5733 5727 5722 5716 5710 5704 5698 5692 5686 5681 5675 5668 5660 5652 5644 5637 5629 5621 5613 5606 5597 5586 5574 5565 5557 5548 5537 5526 5516 5506 5495 5484
5837 5837 5836 5836 5835 5835 5834 5834 5833 5832 5832 5831 5830 5830 5829 5828 5827 5826 5826 5825 5824 5823 5822 5821 5820 5819 5817 5816 5814 5812 5810 5808 5806 5803 5801 5799 5797 5795 5793 5790 5787 5785 5782 5779 5776 5773 5769 5766 5762 5758 5754 5750 5746 5741 5736 5731 5726 5720 5715 5708 5702 5696 5689 5682 5676 5670 5663 5656 5647 5639 5631 5624 5616 5608 5599 5590 5581 5571 5562 5555 5547 5538 5528 5518 5508 5497 5485
5837 5836 5836 5835 5834 5834 5833 5833 5832 5831 5831 5830 5829 5828 5827 5827 5826 5825 5824 5823 5822 5821 5821 5820 5819 5817 5816 5814 5813 5811 5809 5807 5804 5802 5800 5798 5796 5793 5791 5788 5786 5783 5780 5777 5774 5771 5768 5764 5760 5757 5753 5748 5744 5739 5735 5730 5724 5719 5713 5707 5701 5695 5689 5682 5675 5668 5661 5655 5649 5643 5636 5627 5618 5609 5600 5592 5582 5573 5564 5554 5545 5535 5526 5516 5507 5497 5486
5837 5836 5835 5834 5833 5832 5832 5831 5830 5830 5829 5828 5827 5827 5826 5825 5824 5823 5822 5821 5820 5820 5819 5818 5817 5816 5814 5813 5811 5809 5807 5805 5803 5801 5798 5796 5794 5792 5789 5787 5784 5781 5778 5775 5773 5769 5766 5762 5759 5755 5751 5747 5742 5738 5733 5728 5723 5717 5711 5706 5700 5694 5688 5681 5675 5668 5662 5656 5650 5643 5636 5628 5620 5611 5602 5593 5584 5575 5567 5557 5547 5537 5527 5515 5504 5494 5485
5837 5836 5835 5833 5832 5831 5830 5829 5828 5827 5827 5826 5825 5825 5824 5823 5822 5822 5820 5819 5819 5818 5817 5816 5815 5814 5812 5811 5809 5808 5806 5804 5801 5799 5797 5795 5792 5790 5788 5785 5782 5780 5777 5774 5771 5768 5764 5761 5757 5753 5749 5745 5741 5736 5731 5726 5721 5716 5710 5705 5699 5693 5687 5681 5674 5667 5661 5655 5648 5640 5633 5625 5617 5608 5600 5592 5584 5576 5566 5557 5547 5538 5528 5516 5505 5496 5486
5836 5835 5834 5833 5831 5830 5829 5827 5826 5825 5824 5824 5823 5822 5822 5821 5820 5819 5818 5817 5817 5816 5815 5814 5813 5812 5810 5809 5807 5806 5804 5802 5800 5798 5795 5793 5791 5788 5786 5783 5780 5778 5775 5772 5769 5766 5762 5759 5755 5751 5747 5743 5739 5735 5730 5725 5720 5714 5708 5703 5697 5691 5686 5680 5673 5666 5659 5653 5647 5640 5632 5623 5615 5607 5600 5591 5583 5574 5564 5555 5545 5534 5524 5515 5507 5498 5488
5835 5834 5833 5832 5830 5829 5827 5826 5824 5823 5822 5821 5820 5820 5819 5819 5818 5817 5816 5815 5814 5814 5813 5812 5811 5809 5808 5807 5805 5804 5802 5800 5798 5796 5794 5791 5789 5787 5784 5781 5779 5776 5773 5770 5767 5764 5760 5757 5753 5750 5746 5742 5738 5733 5729 5723 5718 5713 5707 5701 5695 5690 5684 5678 5672 5665 5659 5652 5646 5640 5632 5624 5615 5607 5599 5590 5581 5572 5562 5552 5542 5532 5524 5517 5509 5499 5489
5834 5833 5831 5830 5828 5827 5825 5823 5822 5820 5819 5818 5817 5817 5816 5816 5815 5815 5814 5813 5812 5811 5810 5809 5808 5807 5806 5804 5803 5801 5800 5798 5796 5794 5792 5790 5787 5785 5782 5779 5777 5774 5771 5768 5765 5762 5758 5755 5752 5748 5744 5740 5736 5732 5727 5722 5716 5711 5706 5700 5694 5688 5682 5676 5670 5664 5657 5650 5644 5637 5631 5623 5615 5606 5598 5590 5581 5573 5564 5555 5545 5536 5528 5521 5511 5501 5490
5832 5831 5829 5828 5826 5825 5823 5821 5819 5818 5816 5815 5814 5813 5813 5813 5813 5812 5812 5811 5810 5809 5808 5807 5806 5805 5803 5802 5800 5799 5798 5796 5794 5792 5790 5788 5785 5783 5780 5777 5775 5772 5769 5766 5763 5760 5756 5753 5749 5746 5742 5738 5733 5729 5725 5720 5715 5710 5704 5698 5692 5686 5680 5674 5668 5662 5655 5649 5642 5635 5628 5621 5613 5605 5597 5590 5582 5573 5565 5556 5548 5540 5532 5524 5514 5505 5495
5830 5829 5827 5826 5824 5822 5821 5819 5817 5815 5813 5812 5811 5810 5810 5810 5810 5809 5809 5808 5808 5807 5805 5804 5803 5802 5801 5799 5798 5796 5795 5794 5792 5790 5788 5786 5783 5781 5778 5775 5773 5770 5767 5764 5761 5758 5754 5751 5747 5744 5740 5736 5731 5727 5723 5719 5714 5708 5703 5697 5691 5685 5680 5673 5667 5661 5654 5648 5641 5633 5627 5619 5612 5604 5597 5590 5582 5574 5565 5557 5549 5542 5533 5523 5514 5505 5497
5829 5827 5825 5823 5822 5820 5818 5816 5814 5813 5811 5809 5808 5807 5807 5807 5807 5807 5806 5806 5805 5804 5803 5802 5801 5799 5798 5797 5795 5794 5792 5791 5790 5788 5785 5783 5781 5778 5776 5773 5771 5768 5765 5762 5759 5756 5752 5749 5745 5742 5738 5734 5729 5725 5720 5716 5712 5707 5701 5696 5690 5684 5678 5672 5666 5660 5653 5646 5639 5632 5626 5619 5612 5604 5597 5590 5582 5574 5566 5558 5551 5542 5531 5521 5513 5504 5496
5827 5825 5823 5821 5819 5817 5815 5813 5812 5810 5809 5807 5806 5805 5804 5804 5804 5804 5803 5803 5802 5801 5800 5799 5798 5797 5795 5794 5793 5791 5790 5788 5787 5785 5783 5781 5779 5776 5774 5771 5768 5766 5763 5760 5757 5753 5750 5747 5743 5739 5735 5732 5727 5722 5718 5714 5710 5705 5700 5694 5689 5683 5676 5670 5665 5658 5652 5645 5639 5632 5625 5618 5611 5603 5596 5589 5582 5575 5567 5559 5550 5541 5531 5522 5513 5505 5495
5825 5823 5821 5819 5816 5814 5812 5810 5809 5808 5806 5805 5804 5803 5802 5802 5802 5801 5801 5800 5800 5799 5798 5797 5795 5794 5793 5791 5790 5789 5787 5786 5784 5783 5781 5779 5776 5774 5772 5769 5766 5763 5761 5758 5754 5751 5748 5745 5741 5737 5733 5729 5725 5721 5716 5711 5707 5703 5698 5692 5687 5681 5675 5669 5662 5656 5650 5644 5638 5631 5624 5617 5610 5603 5596 5589 5582 5575 5567 5558 5549 5540 5531 5522 5513 5503 5495
5822 5820 5818 5816 5813 5811 5809 5807 5806 5805 5804 5803 5802 5801 5800 5800 5799 5799 5798 5798 5797 5796 5795 5794 5793 5791 5790 5789 5787 5786 5785 5783 5782 5780 5778 5776 5774 5772 5769 5767 5764 5761 5758 5755 5752 5749 5746 5742 5739 5735 5731 5727 5723 5719 5714 5709 5705 5701 5696 5690 5685 5679 5673 5667 5661 5655 5649 5642 5636 5630 5623 5616 5609 5602 5595 5588 5581 5574 5566 5558 5549 5541 5532 5523 5514 5506 5498
5820 5818 5816 5813 5811 5808 5806 5804 5803 5802 5801 5800 5799 5798 5798 5797 5797 5796 5796 5795 5795 5794 5793 5791 5790 5789 5787 5786 5785 5783 5782 5781 5779 5777 5776 5774 5772 5769 5767 5764 5762 5759 5756 5753 5750 5747 5744 5740 5736 5732 5729 5725 5720 5716 5712 5708 5703 5699 5694 5688 5683 5677 5671 5665 5659 5653 5647 5640 5634 5628 5621 5615 5608 5601 5594 5587 5580 5573 5565 5558 5550 5541 5533 5525 5518 5510 5501
5818 5815 5813 5810 5808 5806 5804 5802 5801 5800 5799 5798 5797 5797 5796 5795 5795 5794 5794 5793 5792 5791 5790 5789 5787 5786 5785 5783 5782 5781 5780 5778 5776 5775 5773 5771 5769 5767 5764 5762 5759 5756 5753 5751 5748 5745 5741 5738 5734 5730 5726 5722 5718 5714 5710 5705 5701 5696 5691 5686 5680 5675 5669 5663 5657 5651 5645 5638 5632 5625 5619 5612 5606 5599 5593 5586 5579 5572 5565 5557 5550 5543 5535 5527 5519 5511 5502
5815 5813 5810 5807 5805 5803 5802 5800 5799 5798 5797 5796 5795 5794 5794 5793 5793 5792 5791 5790 5790 5788 5787 5786 5785 5783 5782 5781 5779 5778 5777 5775 5773 5772 5770 5768 5766 5764 5762 5759 5756 5754 5751 5748 5745 5742 5739 5735 5732 5727 5723 5720 5716 5711 5707 5703 5699 5694 5689 5684 5678 5673 5667 5661 5655 5649 5643 5637 5630 5624 5617 5611 5605 5598 5592 5585 5578 5571 5564 5558 5550 5543 5535 5527 5519 5511 5503
5813 5810 5807 5805 5803 5801 5799 5798 5797 5796 5795 5794 5793 5792 5792 5791 5790 5789 5789 5788 5787 5786 5784 5783 5782 5781 5779 5778 5776 5775 5774 5772 5771 5769 5767 5765 5763 5761 5759 5756 5754 5751 5748 5745 5742 5740 5736 5733 5729 5726 5721 5717 5714 5710 5705 5700 5696 5691 5686 5681 5676 5670 5665 5659 5653 5647 5641 5635 5629 5623 5616 5610 5604 5597 5591 5584 5577 5571 5564 5557 5550 5543 5535 5527 5519 5511 5503
5810 5807 5805 5803 5801 5799 5798 5796 5795 5794 5793 5792 5791 5790 5790 5789 5788 5787 5786 5785 5784 5783 5782 5780 5779 5778 5776 5775 5773 5772 5771 5769 5768 5766 5764 5762 5760 5758 5756 5754 5751 5749 5746 5743 5740 5737 5734 5731 5727 5724 5720 5716 5711 5707 5703 5698 5693 5689 5684 5679 5673 5668 5662 5657 5651 5645 5640 5634 5627 5621 5615 5609 5602 5596 5590 5583 5577 5570 5563 5556 5549 5542 5534 5526 5518 5510 5502
5808 5805 5803 5801 5799 5797 5796 5795 5793 5792 5791 5790 5789 5789 5788 5787 5786 5785 5784 5783 5782 5780 5779 5778 5776 5775 5774 5772 5771 5769 5768 5766 5765 5763 5761 5759 5757 5755 5753 5750 5748 5746 5743 5740 5737 5733 5731 5728 5724 5721 5717 5713 5709 5705 5700 5696 5691 5686 5681 5676 5671 5666 5660 5655 5649 5644 5638 5632 5626 5620 5613 5607 5601 5595 5588 5582 5576 5569 5562 5555 5548 5541 5533 5525 5517 5509 5502
5806 5804 5802 5800 5798 5796 5795 5793 5792 5791 5790 5789 5788 5787 5786 5785 5784 5783 5781 5780 5779 5778 5776 5775 5774 5772 5771 5769 5768 5766 5765 5763 5761 5760 5758 5756 5754 5752 5749 5747 5745 5742 5739 5737 5733 5730 5727 5724 5721 5717 5714 5710 5706 5702 5698 5693 5688 5684 5679 5674 5668 5663 5658 5653 5647 5641 5636 5630 5624 5618 5612 5606 5599 5593 5587 5580 5574 5567 5560 5553 5546 5538 5531 5524 5516 5509 5501
5805 5803 5801 5799 5797 5795 5793 5792 5791 5789 5788 5787 5786 5785 5784 5783 5781 5780 5779 5778 5776 5775 5774 5772 5771 5769 5768 5767 5765 5763 5762 5760 5758 5757 5755 5753 5751 5749 5746 5743 5741 5739 5736 5733 5730 5727 5724 5721 5718 5714 5710 5706 5703 5699 5694 5690 5685 5681 5676 5671 5666 5661 5656 5650 5645 5639 5634 5628 5622 5616 5610 5604 5597 5591 5585 5578 5572 5565 5558 5551 5545 5537 5530 5523 5516 5508 5501
5804 5802 5800 5798 5796 5794 5793 5791 5790 5788 5787 5785 5784 5783 5782 5781 5779 5778 5777 5775 5774 5773 5771 5770 5768 5767 5766 5764 5763 5761 5759 5758 5756 5754 5752 5750 5748 5746 5743 5740 5737 5735 5732 5729 5726 5723 5720 5717 5714 5710 5706 5703 5699 5695 5691 5687 5682 5677 5672 5668 5663 5658 5653 5647 5642 5637 5631 5625 5620 5614 5608 5601 5595 5589 5582 5576 5569 5563 5556 5550 5543 5536 5530 5523 5515 5508 5500
5803 5801 5799 5797 5795 5794 5792 5790 5789 5787 5785 5784 5783 5781 5780 5778 5777 5776 5774 5773 5772 5770 5769 5768 5766 5765 5763 5762 5760 5758 5756 5755 5753 5751 5749 5747 5744 5742 5740 5738 5735 5732 5729 5727 5723 5720 5717 5714 5711 5707 5703 5699 5695 5692 5688 5683 5679 5674 5669 5664 5660 5655 5650 5645 5639 5634 5629 5623 5617 5611 5605 5599 5593 5586 5580 5573 5567 5561 5554 5548 5541 5535 5528 5521 5514 5507 5499
5802 5800 5798 5796 5795 5793 5791 5789 5788 5786 5784 5783 5781 5780 5778 5777 5775 5774 5772 5771 5770 5768 5767 5765 5764 5762 5761 5759 5757 5756 5754 5752 5750 5748 5746 5744 5741 5739 5736 5734 5731 5729 5726 5724 5721 5718 5714 5711 5707 5704 5700 5696 5692 5688 5684 5679 5675 5671 5666 5661 5656 5652 5647 5642 5637 5631 5626 5620 5615 5609 5603 5597 5590 5584 5577 5571 5565 5558 5552 5546 5540 5533 5527 5520 5513 5506 5498
5801 5799 5797 5795 5794 5792 5790 5789 5787 5785 5783 5781 5780 5778 5777 5775 5774 5772 5771 5769 5768 5766 5765 5763 5762 5760 5758 5757 5755 5753 5751 5749 5747 5744 5742 5740 5738 5735 5733 5730 5727 5725 5723 5721 5718 5714 5711 5708 5704 5700 5697 5693 5688 5684 5680 5676 5671 5667 5663 5658 5653 5648 5643 5638 5633 5628 5623 5617 5612 5606 5600 5594 5588 5581 5575 5568 5562 5556 5550 5543 5537 5531 5524 5518 5511 5505 5498
5800 5798 5796 5794 5793 5791 5789 5787 5786 5784 5782 5780 5779 5777 5776 5774 5773 5771 5770 5768 5766 5765 5763 5761 5760 5758 5756 5754 5752 5750 5748 5746 5744 5741 5739 5737 5735 5732 5730 5727 5724 5721 5719 5717 5714 5711 5707 5704 5700 5696 5693 5689 5685 5680 5676 5672 5668 5664 5659 5655 5650 5645 5640 5635 5630 5625 5620 5614 5609 5603 5597 5591 5585 5578 5572 5566 5560 5553 5547 5541 5534 5528 5522 5515 5509 5503 5496
5798 5796 5795 5793 5791 5790 5788 5786 5785 5783 5781 5780 5778 5777 5775 5773 5772 5770 5768 5767 5765 5763 5761 5760 5758 5756 5754 5752 5750 5747 5745 5743 5741 5739 5736 5733 5731 5729 5727 5724 5721 5718 5715 5712 5710 5707 5703 5700 5696 5693 5689 5685 5681 5677 5672 5668 5664 5660 5656 5651 5646 5642 5637 5632 5626 5621 5616 5611 5605 5599 5594 5588 5582 5576 5570 5564 5557 5551 5545 5538 5532 5526 5520 5513 5507 5501 5495
5796 5795 5793 5792 5790 5789 5787 5785 5783 5782 5780 5779 5777 5776 5774 5772 5771 5769 5767 5765 5763 5762 5760 5758 5756 5754 5752 5750 5748 5745 5743 5741 5739 5736 5733 5730 5727 5725 5723 5721 5719 5715 5712 5709 5706 5703 5700 5696 5692 5689 5685 5681 5677 5673 5669 5664 5660 5656 5652 5647 5643 5638 5633 5628 5623 5618 5612 5607 5602 5596 5590 5585 5579 5573 5567 5561 5555 5548 5542 5535 5529 5523 5517 5511 5505 5498 5492
5794 5793 5791 5790 5789 5787 5785 5784 5782 5781 5779 5778 5776 5774 5773 5771 5769 5767 5766 5764 5762 5760 5758 5756 5754 5751 5749 5747 5745 5743 5740 5738 5736 5734 5731 5728 5724 5722 5719 5717 5715 5712 5709 5705 5702 5699 5696 5692 5688 5685 5681 5677 5673 5669 5665 5661 5656 5652 5647 5643 5639 5634 5629 5624 5619 5614 5608 5603 5597 5592 5587 5581 5575 5569 5564 5558 5552 5546 5539 5533 5527 5521 5515 5509 5503 5497 5490
5791 5790 5789 5788 5786 5785 5783 5782 5780 5779 5777 5776 5774 5772 5771 5769 5767 5765 5763 5761 5759 5757 5755 5753 5751 5749 5747 5745 5743 5740 5738 5735 5733 5731 5728 5725 5721 5718 5716 5713 5710 5707 5704 5701 5698 5694 5691 5687 5684 5680 5677 5673 5669 5665 5661 5657 5652 5648 5643 5639 5634 5630 5625 5620 5615 5610 5604 5599 5594 5588 5583 5577 5572 5566 5560 5555 5549 5543 5537 5530 5524 5518 5512 5506 5501 5495 5488
5789 5788 5786 5785 5783 5782 5781 5779 5778 5776 5775 5773 5771 5770 5768 5766 5764 5762 5761 5759 5757 5754 5752 5750 5748 5746 5744 5742 5740 5737 5734 5732 5730 5727 5725 5721 5718 5714 5711 5709 5706 5703 5700 5697 5694 5690 5686 5683 5679 5676 5672 5668 5664 5660 5656 5652 5648 5643 5639 5634 5630 5625 5621 5616 5611 5606 5600 5595 5590 5585 5579 5574 5568 5562 5557 5551 5545 5540 5533 5527 5521 5515 5509 5503 5498 5492 5486
5785 5784 5783 5782 5780 5779 5778 5776 5775 5773 5772 5770 5768 5767 5765 5763 5761 5759 5758 5756 5754 5752 5749 5747 5745 5743 5740 5738 5736 5733 5730 5727 5725 5723 5720 5717 5713 5709 5706 5703 5701 5697 5694 5692 5689 5686 5682 5678 5674 5671 5667 5664 5660 5656 5652 5648 5644 5639 5634 5629 5625 5620 5616 5611 5606 5601 5596 5591 5585 5580 5575 5570 5564 5558 5553 5548 5542 5536 5530 5524 5518 5512 5506 5500 5494 5489 5484